-1 Query Result

LUMCON's Bayouside Classroom: Query Results


Try Another Query    Instructions for saving Query Results    View Delimited Text File for this Query   
UserNameUserIDGroupNumberLocationLocationIDSampleDateSampleTimeBottomTempTopTempBottomSalinityTopSalinityBottomDOTopDOBottompHToppHBottomTurbidityTopTurbidityDepth
Alirette 86 LaCacheMS 1/1/1900 11;30 NA 11 NA NA 8.0 NA 8.0  34 NA 
Alirette 86 NA LaCacheMS 1/1/1900 11:35 NA NA NA NA NA NA NA NA NA NA NA 
Alirette 86 NA LaCacheMS 1/1/1900 2:50:00 PM  NA 22 NA NA 8.0 NA 8.1  32 NA 
Alirette 86 NA LaCacheMS 11/30/2007 16:30 NA 18.7 NA NA NA NA 7.98 NA 30 cm NA 
Alirette 86 NA LaCacheMS 1/28/2008 14:00 NA 15 NA NA NA 9.2 NA NA NA 23.8 NA 
Alirette 86 NA LaCacheMS 2/1/2008 14:5 NA NA NA NA NA NA NA NA NA NA NA 
Alirette 86 NA LaCacheMS 2/1/2008 14:05 NA 15 NA NA NA NA NA NA NA NA NA 
Alirette 86 10 LaCacheMS 2/1/2008 14:02 NA 10.8 NA 5.40 NA NA NA NA NA NA NA 
Alirette 86 LaCacheMS 2/1/2008 14:00 NA 15 NA NA NA NA 7.77 NA 20 NA 
Alirette 86 10 LaCacheMS 2/1/2008 14:02 NA 10.8 NA 5.40 NA 8.8 NA 7.85 NA 10 NA 
Alirette 86 NA LaCacheMS 2/1/2008 14:05 NA 15 NA NA 10 NA 7.73 NA 22.4 NA 
Alirette 86 NA LaCacheMS 2/1/2008 14:05 NA 15 NA NA 8.6 NA 7.5IT WAS NA NA NA 
Alirette 86 LaCacheMS 2/1/2008 14:05 NA 16  na NA NA 7.8 NA 10 NA 
Alirette 86 10 LaCacheMS 2/1/2008 14:02 NA 18 NA 540 NA 8.8 NA 7.85 NA 10.8 NA 
Alirette 86 LaCacheMS 2/1/2008 14:05 NA 16 NA NA 7.2 NA 7.75 NA 17 NA 
Alirette 86 LaCacheMS 2/1/2008 14:05 NA 17 NA NA NA 7.78 NA 13.2 NA 
Alirette 86 LaCacheMS 2/1/2008 14:05 NA 17 NA NA NA 7.78 NA 13.2 NA 
Alirette 86 LaCacheMS 4/10/2008 1410 na 30 NA NA NA 5.6ppt NA NA NA 23 cm NA 
Alirette 86 LaCacheMS 4/10/2008 14:10 NA 28 NA  NA 6.3 NA NA NA 22 cm NA 
Alirette 86 LaCacheMS 4/10/2008 14:10 NA 30 NA NA NA 6.4 NA NA NA 24 cm NA 
Alirette 86 LaCacheMS 4/10/2008 14:10 NA 25 NA NA NA 6.0 NA NA NA 23 cm NA 
Alirette 86 LaCacheMS 4/10/2008 14:10 NA 28 NA NA NA 6.5 NA NA NA 25 NA 
Alirette 86 LaCacheMS 4/10/2008 14:10 NA 26 NA NA NA 6.0 NA NA NA 25.4 cm NA 
Alirette 86 LaCacheMS 4/10/2008 14:10 NA 27 NA NA NA 5.2 NA NA NA 22 cm NA 
Alirette 86 LaCacheMS 4/10/2008 14:10 NA 28 NA NA NA 5.8 NA NA NA 20.5 cm NA 
Alirette 86 LaCacheMS 4/10/2008 14:10 NA 26 NA NA NA 8.2 NA NA NA 26 cm NA 
Alirette 86 10 LaCacheMS 4/10/2008 14:10 NA 30 NA NA NA 5.8 NA NA NA 28 NA 
Alirette 86 NA LaCacheMS 10/24/2008  NA NA NA NA NA NA NA NA NA NA NA 
Alirette 86 LaCacheMS 10/24/2008 1130 NA 24 NA  NA NA NA NA NA NA NA 
Alirette 86 LaCacheMS 10/24/2008 1130 NA 24 NA NA NA 3.8 NA NA NA 42cm. NA 
Alirette 86 LaCacheMS 10/24/2008 11:30 NA 22 F NA NA NA NA NA NA NA 48.4 cm NA 
Alirette 86 LaCacheMS 10/24/2008 11:30 NA 20 NA NA NA 4.2 NA NA NA 55.7 NA 
Alirette 86 LaCacheMS 10/24/2008 11:30 NA 23 NA NA NA NA NA NA NA 53.2cm. NA 
Alirette 86 LaCacheMS 10/24/2008 11:30 NA 26 NA NA NA NA NA NA NA NA 
Alirette 86 LaCacheMS 10/24/2008 11:30 NA 26 NA NA NA NA NA NA NA NA 
Alirette 86 LaCacheMS 10/24/2008 11:30 NA 24 NA NA NA 6.2 NA NA NA NA NA 
Alirette 86 LaCacheMS 10/24/2008 11:30  28        42  
Alirette 86 LaCacheMS 10/24/2008 11:30 NA 24 NA 4.4 NA 6.8 NA NA NA 57.8cm NA 
Alirette 86 LaCacheMS 10/24/2008 11:30 NA 20 NA NA NA NA NA NA 55.7cm NA 
Alirette 86 LaCacheMS 10/24/2008 11:30 NA 24 NA 4.4 NA 6.8 NA NA NA 57.8cm NA 
Alirette 86 LaCacheMS 10/24/2008 11:30 NA 24 NA 4.4 NA 6.8 NA NA NA 57.8cm NA 
Alirette 86 LaCacheMS 2/17/2009 11:35 NA NA NA NA NA NA NA NA NA NA NA 
Alirette 86 LaCacheMS 2/17/2009 11:35 NA 20 NA  NA 8.4 NA 96 NA 17 NA 
Alirette 86 LaCacheMS 2/17/2009 11:35 NA 20 NA 50 NA NA 8.3 NA 16.6 NA 
Alirette 86 LaCacheMS 2/17/2009 11:25 NA 20 NA NA 8.7 NA 8.7 NA 7.2 NA 
Alirette 86 LaCacheMS 2/17/2009 11:35 NA 19 NA 1% NA 8.4 NA 8.5 NA 16.25cm NA 
Alirette 86 LaCacheMS 2/17/2009 1145 NA 19 NA NA 7.2 NA 8.3 NA 15 NA 
Alirette 86 LaCacheMS 2/17/2009 11:35 NA 20 NA NA 3.5 NA 8.5 NA 17 NA 
Alirette 86 LaCacheMS 2/17/2009 11:35  21.5 NA 2% NA 5.2 NA NA NA 15cm NA 
Alirette 86 LaCacheMS 2/17/2009 11:45 NA 19 NA NA 7.2 NA 8.8 NA 15.4 NA 
Alirette 86 NA LaCacheMS 3/9/2009 11:25 NA 20 NA NA NA 6.8 NA NA 18.8 NA 
Alirette 86 NA LaCacheMS 4/9/2009  NA 22 NA NA NA 8.0 NA 18 NA 
Alirette 86 LaCacheMS 4/9/2009 11:25 NA 22 NA NA 8.0 NA 8.7 NA NA NA 
Alirette 86 LaCacheMS 4/9/2009 11:25 NA 20 NA NA 6.6 NA 8.4 NA 13.2 cm NA 
Alirette 86 LaCacheMS 4/9/2009 11:25 NA 20 NA NA 6.2 NA 8.6 NA 17 cm NA 
Alirette 86 LaCacheMS 4/9/2009 11:25 NA 22 NA NA NA 8.7 NA 19.1 NA 
Alirette 86 LaCacheMS 4/9/2009 11:25 NA 22 NA NA NA 8.4 NA 15.3cm NA 
Alirette 86 LaCacheMS 4/9/2009 11:25 NA 20 NA 50 NA 6.4 NA 8.5 NA 17 NA 
Alirette 86 LaCacheMS 9/22/2009 11:45 NA 30 NA NA 4.2 NA 8.3 NA 40 cm NA 
Alirette 86 10 LaCacheMS 1/1/2010 11:30  13 NA 1% NA .6 NA NA  29.8 NA 
Alirette 86 LaCacheMS 1/1/2010  NA 16 NA NA 9.5 NA 31  .1 NA 
Alirette 86 LaCacheMS 1/19/2010 11:30 NA 14 NA NA 7.3 NA 9.0  20 NA 
Alirette 86 LaCacheMS 1/19/2010 11:30 NA 15 NA NA 6.6 NA 8.0  21 NA 
Alirette 86 LaCacheMS 1/19/2010 11:30 NA 18  NA NA 6.8 NA  24 NA 
Alirette 86 LaCacheMS 1/19/2010 11:30 NA 15 NA NA NA 5.2 NA 8.1  24.4 NA 
Alirette 86 LaCacheMS 1/19/2010 11:30 NA 16 NA NA 5.8 NA 8.4  23.6 NA 
Alirette 86 LaCacheMS 1/19/2010 11:30 NA 15 NA NA 6.4 NA 8.8  25.8 NA 
Alirette 86 LaCacheMS 2/1/2010 11:30 NA 12 NA NA 8.2 NA 8.8  34.8 NA 
Alirette 86 LaCacheMS 2/1/2010 11:30 NA 14 NA 0.1 NA 5.4 NA 8.1  35.6 NA 
Alirette 86 LaCacheMS 2/1/2010 11:30  12    8.5  32  
Alirette 86 LaCacheMS 2/1/2010 11:30 NA 12 NA 1.5 NA 8.6 NA 8.5  36 NA 
Alirette 86 LaCacheMS 3/4/2010 11:20 NA 19 NA NA 8.0 NA 7.8  35 NA 
Alirette 86 LaCacheMS 3/4/2010  NA 12 NA NA 8.2 NA 8.5  23 NA 
Alirette 86 LaCacheMS 3/4/2010 11:30 NA 15 NA 2.5 NA 7.6 NA 8.4  34.4 NA 
Alirette 86 10 LaCacheMS 3/4/2010  NA 13 NA NA 8.4 NA 8.1  26 NA 
Alirette 86 LaCacheMS 3/4/2010 11:30 NA 18 NA 3NA NA 8. NA 8.6  35 NA 
cbascle 69 LaCacheMS 3/4/2010 14:10 NA  15 NA NA NA NA NA NA  NA NA 
cbascle 69 LaCacheMS 3/4/2010 14:10 NA  15 NA NA 9.6 NA 8.2  22 NA 
cbascle 69 LaCacheMS 3/4/2010 14:02 NA 15 NA NA NA 9.3  27.8 NA 
cbascle 69 LaCacheMS 3/4/2010 14:10 NA  15 NA NA 9.6 NA 8.2  22 NA 
cbascle 69 LaCacheMS 3/4/2010 14:10  15 NA NA 8.2 NA 9.4  21.2 NA 
cbascle 69 LaCacheMS 3/4/2010 14:10 NA 14 NA 0.5 NA 9.0 NA 7.8  29.7 NA 
cbascle 69 10 LaCacheMS 3/4/2010 14:10  14 NA NA NA 7.9  24 NA 
cbascle 69 LaCacheMS 3/4/2010 14:10 NA 18 NA NA NA 7.9  21 NA 
cbascle 69 07 LaCacheMS 3/4/2010 15:10 NA 16 NA NA NA 8.0  30 NA 
cbascle 69 LaCacheMS 3/4/2010 14:10 NA 18 NA NA 10 NA 7.8  22 NA 
cbascle 69 LaCacheMS 3/4/2010 14:10 NA 19 NA NA 9.2 NA 7.9  27.8 NA 
Alirette 86 LaCacheMS 3/4/2010 11:10 NA 15 NA NA 8.4 NA 8.5  26.5 NA 
Alirette 86 LaCacheMS 10/20/2010 15;00  28 NA NA 9.6 NA 8.3  13.8 NA 
Alirette 86 LaCacheMS 10/20/2010 1500 NA 26 NA NA 6.6 NA 8.5  23.4 NA 
Alirette 86 LaCacheMS 10/20/2010 15:00 NA 26 NA NA 6.2 NA 8.1  10 NA 
Alirette 86 LaCacheMS 10/20/2010 15:00 NA 25 NA  NA 6.2  8.2  19.6 NA 
Alirette 86 LaCacheMS 10/20/2010 15:00 NA 27 NA NA NA 8.2  20.23 NA 
Alirette 86 LaCacheMS 10/20/2010 15:00 NA 30 C NA NA 6.4 NA 8.1  21.4 NA 
Alirette 86 LaCacheMS 11/17/2010 14:50 NA 20  NA 7.25 NA 8.0  37 NA 
Alirette 86 LaCacheMS 11/17/2010 14:50 NA 20 NA NA 84 NA  45 NA 
Alirette 86 LaCacheMS 11/17/2010 14:50  25  NA NA 8.5  47 NA 
Alirette 86 LaCacheMS 11/17/2010 14:50  21 NA NA 7.2 NA 8.1  32.2 NA 
Alirette 86 LaCacheMS 11/17/2010 14:50 NA 21 NA NA NA 8.5  33 NA 
Alirette 86 LaCacheMS 11/17/2010 14:50 NA 21 NA NA 10 NA 7.9  37 NA 
Alirette 86 LaCacheMS 11/17/2010 14:50 NA 19 NA 1.5 NA 8.1 NA 8.1  39 NA 
Alirette 86 LaCacheMS 11/17/2010 14:50 NA 22 NA NA NA 8.2  41 NA 
Alirette 86 LaCacheMS 1/4/2011 14:55 NA 16 NA NA 8.8 NA 8.4  39.6 NA 
Alirette 86 LaCacheMS 1/4/2011 14:55  17 NA NA 8.6 NA 8.3  47.6 NA 
Alirette 86 LaCacheMS 1/4/2011 14:55 NA 14 NA NA NA 8.3  41.3 NA 
Alirette 86 LaCacheMS 1/4/2011 14:55  16 NA 1.0 NA 6.8 NA 8.0  44 NA 
Alirette 86 LaCacheMS 1/4/2011 14:55 NA 18 NA NA 8.5 NA 8.4  48 NA 
Alirette 86 LaCacheMS 1/4/2011 1455 NA 15 NA NA 8.2 NA 8.9  42 NA 
Alirette 86 LaCacheMS 1/4/2011 14:55 NA 16 NA NA NA 8.2  45 NA 
Alirette 86 LaCacheMS 1/4/2011 14:55 NA 16 NA NA NA 8.2  45 NA 
Alirette 86 LaCacheMS 1/4/2011 14:55 NA 16 NA NA NA 8.2  45 NA 
Alirette 86 LaCacheMS 1/11/2011 14:55 NA 19 NA NA 8.0 NA 8.3  43.4 NA 
Alirette 86 LaCacheMS 4/13/2011 14:50 NA 25 NA NA NA 8.5  26 NA 
Alirette 86 LaCacheMS 4/13/2011 14:50 NA 30 NA NA 7.2 NA 8.1  32.2 NA 
Alirette 86 NA LaCacheMS 4/13/2011  NA 28 NA NA 6.4 NA NA  NA NA 
Alirette 86 NA LaCacheMS 4/13/2011 14:50 NA 29 NA NA NA 8.3  29.5 NA 
Alirette 86 NA LaCacheMS 4/13/2011  NA 28 NA NA 6.4 NA 8.2  28.7 NA 
Alirette 86 NA LaCacheMS 4/13/2011 14:50 NA 29 NA NA 7.6 NA 8.7  35.5 NA 
Alirette 86 LaCacheMS 4/13/2011 14:50 NA 30 NA NA 7.5 NA 8.4  33.8 NA 
Alirette 86 LaCacheMS 4/13/2011 14:50 NA 27 NA NA 9.2 NA 8.4  23.5 NA 
Alirette 86 NA LaCacheMS 4/17/2011  NA 27 NA NA NA NA NA  NA NA 
Alirette 86 NA LaCacheMS 4/17/2011  NA 27 NA NA NA 8.3  27 NA 
Alirette 86 LaCacheMS 9/2/2011 13:00 NA 28 NA NA NA 4.5 NA  NA NA 
Alirette 86 LaCacheMS 9/2/2011 13:00 NA 30 NA NA NA NA 7.5  32 NA 
Alirette 86 LaCacheMS 9/2/2011 13:00 NA 28 NA NA NA 32 NA 8.3  55 NA 
Alirette 86 LaCacheMS 9/2/2011 13:01 NA 28 NA NA NA 6.4mg/L NA 7.9ppt  NA NA 
Alirette 86 LaCacheMS 9/2/2011 13:00 NA 26 NA NA NA NA 7.7  NA NA 
Alirette 86 LaCacheMS 9/9/2011 13:00 NA 26 NA NA NA 3.2 NA 7.8  33 NA 
Alirette 86 LaCacheMS 9/9/2011 13:00 NA 23 NA NA NA 7.5  36 NA 
Alirette 86 LaCacheMS 9/9/2011 13:00 NA 20 NA NA NA NA  47.1 NA 
Alirette 86 LaCacheMS 9/9/2011 13:00 NA 21 NA NA NA 3.6 NA 7.4  37.4 NA 
Alirette 86 LaCacheMS 9/9/2011 12:55 NA 26 NA  NA 2.6 NA 7.5  44.8 NA 
Alirette 86 LaCacheMS 9/9/2011 13:01 NA 20 NA NA NA 8.8 NA 8.5  44cm NA 
Alirette 86 LaCacheMS 11/18/2011 11:05 NA 18 NA NA NA NA 8.4  NA NA 
Alirette 86 LaCacheMS 11/18/2011 11:05 NA 19 NA NA 7.2 NA 8.7  34 NA 
Alirette 86 LaCacheMS 11/18/2011 11:05 NA 18 NA NA NA 5.4 NA 8.8  48 NA 
Alirette 86 LaCacheMS 11/18/2011 13:00 NA 19 NA NA 9.5 NA 8.3  32 NA 
Alirette 86 LaCacheMS 11/18/2011 11:05 NA 16 NA NA NA 5.8 NA 8.3  4.75 NA 
Alirette 86 LaCacheMS 2/13/2012 12:55 NA 12 NA NA NA 9.6 NA 8.5  44 NA 
Alirette 86 LaCacheMS 2/13/2012 12:55 NA 10 NA NA NA 10 NA 8.4  45 NA 
Alirette 86 LaCacheMS 2/13/2012 1255 NA 15 NA  NA NA 8.6  48 NA 
Alirette 86 LaCacheMS 2/13/2012 13:00 NA 15 NA NA NA 12 NA 8.6  56 NA 
Alirette 86 LaCacheMS 2/13/2012 12:55 NA 10 NA NA NA 11 NA 8.6  NA NA 
Alirette 86 LaCacheMS 2/13/2012 12:55 NA 20 NA NA NA 8.6 NA 8.4  38  NA 
Alirette 86 LaCacheMS 2/13/2012 12:55 NA 13 NA NA NA 9.2 NA  50 NA 
Alirette 86 LaCacheMS 4/16/2013 14:05 NA 25 NA  NA 7.1 NA 8.5sun  NA NA 
Alirette 86 LaCacheMS 4/16/2013 14:05 NA 27 NA NA NA 5.8 NA 7.9  NA NA 
Alirette 86 LaCacheMS 4/16/2013 1405 NA NA NA NA NA 7.9  NA NA 
Alirette 86 LaCacheMS 4/16/2013 14:05 NA 15 NA NA NA 6.8 NA 8.5  NA NA 
Alirette 86 LaCacheMS 4/16/2013 14:05 NA 26 NA NA NA NA 8.6  NA NA 
Alirette 86 LaCacheMS 4/16/2013 14:05 NA 18 NA NA NA 7.1 NA 8.4  NA NA 
Lumcon LaCacheMS 2/25/2014 12;30 NA NA NA 6.5 NA 8.8  NA NA 
Lumcon LaCacheMS 2/25/2014 12:30 NA 20 NA NA NA 8.2  NA NA 
Lumcon LaCacheMS 2/25/2014 12:30 NA 15 NA NA NA NA 9.1  NA NA 
Lumcon LaCacheMS 3/25/2014 11:01 NA 20 NA NA 5.5 NA 8.3  36.3 NA 
Lumcon LaCacheMS 3/25/2014 11:00  NA NA 6.0 NA 8.4  NA NA 
Lumcon LaCacheMS 3/25/2014 10:52 NA 10 NA NA 5.8 NA 8.8  33 NA 
Lumcon LaCacheMS 3/25/2014  NA 15 NA NA NA  27 NA 
Lumcon LaCacheMS 3/26/2014 10:50 NA 20 NA NA NA 7.9  32 NA 
Lumcon 07 LaCacheMS 3/26/2014 11;05 NA 18 NA NA NA 6.8 NA  38 NA 
Lumcon LaCacheMS 3/26/2014 11:00 NA -1 NA NA NA 6.8 NA 8.4  NA NA 
Lumcon LaCacheMS 3/26/2014 10:50 NA 14 NA NA 6.5 NA 8.3  32 NA 
Lumcon LaCacheMS 3/26/2014 10:50 NA 18 NA NA NA  32 NA 
Lumcon LaCacheMS 3/26/2014 11:00 NA 20 NA NA NA 8.2  32 NA 
Lumcon LaCacheMS 3/26/2014 11:00 NA 20 NA NA NA  40 NA 
Lumcon LaCacheMS 3/26/2014 11:00 NA 14 NA NA 5.6 NA  38 NA 
Lumcon LaCacheMS 3/26/2014 11:00 NA 20 NA NA NA NA 8.9  32.4 NA